Other Surface Observations
Issued by NWS Tucson, AZ

Home | Current Version | Previous Version | Text Only | Print | Product List | Glossary On
Versions: 1 2 3 4 5 6 7 8 9 10 11 12 13 14 15 16 17 18 19 20 21 22 23 24 25 26 27 28 29 30 31 32 33 34 35 36 37 38 39 40 41 42 43 44 45 46 47 48 49 50
325
SXUS55 KTWC 101015
OSOTWC

WEATHER ROUNDUP FOR SOUTHEAST ARIZONA
NATIONAL WEATHER SERVICE TUCSON AZ
315 AM MST WED FEB 10 2016

AZZ504>506-514-101115-
LOCATION       SKY/WX    TMP DP  RH WIND       PRES   REMARKS
TUCSON         CLEAR     50  21  32 S3        30.22S
DAVIS-MONTHAN  CLEAR     55  19  24 SE12      30.20S
CHILDRENS PARK N/A      N/A N/A  50 E3                PIMA CO DEQ
ALVERNON/22ND  N/A       54 N/A N/A E3                PIMA CO DEQ
CHERRY/GLENN   N/A       48 N/A N/A SE4               PIMA CO DEQ
TANGERINE      N/A       50 N/A N/A E4                PIMA CO DEQ
CONTL RANCH    N/A       51  29  43 E0                PIMA CO DEQ
GRANT/1ST      N/A       52  26  36 W8                PIMA CO DEQ
CRAYCROFT/22ND N/A       58  19  22 S5                PIMA CO DEQ
GOLFLINKS/KOLB N/A       58  19  22 SE5               PIMA CO DEQ
AJO/12TH       N/A       55  21  26 S7                PIMA CO DEQ
SAGUARO EAST   N/A       13 -14  26 S6                PIMA CO DEQ
FAIRGROUNDS    N/A       58 N/A N/A SE13              PIMA CO DEQ
SAGUARO        N/A       48  21  34 N3                *SABINO CYN
SAN CARLOS     N/A       42  23  47 W4                *SAN CARLOS
GREEN VALLEY   N/A       45  22  39 S4                PIMA CO DEQ
HORSE CAMP CYN N/A       53  20  27 E14G17            *ARAVAIPA CYN
RINCON MTNS    N/A       45   5  19 NE11G17           *NR MANNING CAMP
$$

AZZ509>511-101115-
LOCATION       SKY/WX    TMP DP  RH WIND       PRES   REMARKS
SAFFORD        CLEAR     40  23  50 CALM      30.29R
STRAY HORSE    N/A       39  10  30 NE3               *
TRAIL CABIN    N/A       42  18  37 SE5               *N OF GRANVILLE
BLACK HILLS    N/A       43  24  47 E2                *N OF FT THOMAS
DRY LAKE       N/A       43  17  34 SE6               *NATANES MTNS
NOON CREEK     N/A       49  18  29 SW8G12            *PINALENO MTNS
COLUMBINE      N/A       24  12  59 CALM              *PINALENO MTNS
GUTHRIE        N/A       47  15  27 E12               *SW OF GUTHRIE
$$

AZZ502-503-513-101115-
LOCATION       SKY/WX    TMP DP  RH WIND       PRES   REMARKS
NOGALES        CLEAR     47  18  31 E7        30.24F
SELLS          N/A       50  23  34 E2                *
SASABE         N/A       34  24  66 S6                *ALTAR VLY
HOPKINS        N/A       52   4  14 E27G47            *SANTA RITA MTNS
CARR CYN       N/A       55  12  18 S4G13             *W OF HEREFORD
$$

AZZ507-508-512-101115-
LOCATION       SKY/WX    TMP DP  RH WIND       PRES   REMARKS
SIERRA VISTA   PTCLDY    44  17  34 SE10      30.30F
DOUGLAS        PTCLDY    31  16  54 NW12      30.29S WCI  22
EMPIRE MTNS    N/A       49  15  25 S6                *LAS CIENEGAS NCA
MULESHOE RANCH N/A       59  17  19 E7G17             *PRESERVE
HEADQUARTERS   N/A       49  16  27 NE3               *CHIRICAHUA MTNS
$$

.............................NOTES.............................
THIS IS AN AUTOMATED COLLECTIVE WITH MINIMAL QUALITY CONTROL.
PIMA CO DEQ SITES HAVE NONSTANDARD WIND SENSOR HEIGHTS.
PIMA CO DEQ SITES DO NOT REPORT WIND GUSTS.
* INDICATES WIND SENSORS LOCATED AT 20 FEET INSTEAD OF 33 FEET.
..............................KEY..............................
SKY/WX - SKY CONDITION/WEATHER
TMP    - TEMPERATURE IN FAHRENHEIT
DP     - DEWPOINT IN FAHRENHEIT
RH     - RELATIVE HUMIDITY IN PERCENT
WIND   - DIRECTION AND SPEED IN MILES PER HOUR (MPH)
VRB    - VARIABLE WIND DIRECTION
PRES   - MEAN SEA LEVEL PRESSURE IN INCHES OF MERCURY
         F - FALLING PRESSURE   R - RISING PRESSURE
         S - STEADY PRESSURE
VSB    - VISIBILITY IN MILES
HX     - HEAT INDEX IN FAHRENHEIT
WCI    - WIND CHILL INDEX IN FAHRENHEIT
N/A    - NOT AVAILABLE
AFB    - AIR FORCE BASE
         DAVIS-MONTHAN IS DAVIS-MONTHAN AIR FORCE BASE
CYN    - CANYON
MTNS   - MOUNTAINS
NCA    - NATIONAL CONSERVATION AREA
NR     - NEAR
VLY    - VALLEY
CONTL  - CONTINENTAL
PIMA CO DEQ - PIMA COUNTY DEPT OF ENVIRONMENTAL QUALITY



USA.gov is the U.S. government's official web portal to all federal, state and local government web resources and services.